This is the latest recevied weather packets stored in our database for station/object W8DRH-13. If no packets are shown the sender has not sent any weather packets the latest 10 day(s).
| Time | Temp. | Humidity | Pressure | Rain* | Wind** | Luminosity | Snow |
|---|---|---|---|---|---|---|---|
| 1777393296 | 18.89° C | 79% | 1010.2 hPa | 0 mm | - | 729 W/m² | - |
| 1777392993 | 18.89° C | 80% | 1010.1 hPa | 0 mm | - | 739 W/m² | - |
| 1777392688 | 19.44° C | 78% | 1010 hPa | 0 mm | - | 115 W/m² | - |
| 1777392385 | 19.44° C | 78% | 1009.8 hPa | 0 mm | - | 780 W/m² | - |
| 1777392080 | 19.44° C | 78% | 1010.1 hPa | 0 mm | - | 468 W/m² | - |
| 1777391775 | 19.44° C | 78% | 1010.1 hPa | 0 mm | - | 927 W/m² | - |
| 1777391471 | 19.44° C | 80% | 1010 hPa | 0 mm | - | 970 W/m² | - |
| 1777391168 | 18.89° C | 82% | 1010.1 hPa | 0 mm | - | 802 W/m² | - |
| 1777390864 | 18.89° C | 82% | 1010.1 hPa | 0 mm | - | 130 W/m² | - |
| 1777390561 | 18.33° C | 82% | 1010.2 hPa | 0 mm | - | 301 W/m² | - |
| 1777390258 | 18.33° C | 82% | 1009.9 hPa | 0 mm | - | 606 W/m² | - |
| 1777389953 | 18.33° C | 83% | 1010 hPa | 0 mm | - | 147 W/m² | - |
| 1777389650 | 18.33° C | 85% | 1010.1 hPa | 0 mm | - | 253 W/m² | - |
| 1777389346 | 17.78° C | 87% | 1009.9 hPa | 0 mm | - | 414 W/m² | - |
| 1777389045 | 17.78° C | 88% | 1010.1 hPa | 0 mm | - | 892 W/m² | - |
| 1777388741 | 17.22° C | 90% | 1010 hPa | 0 mm | - | 840 W/m² | - |
| 1777388438 | 16.67° C | 91% | 1009.9 hPa | 0 mm | - | 692 W/m² | - |
| 1777388132 | 16.67° C | 92% | 1009.9 hPa | 0 mm | - | 619 W/m² | - |
| 1777387828 | 16.11° C | 93% | 1009.9 hPa | 0 mm | - | 1005 W/m² | - |
| 1777387526 | 16.11° C | 93% | 1010.1 hPa | 0 mm | - | 162 W/m² | - |
| 1777387221 | 15.56° C | 94% | 1010.1 hPa | 0 mm | - | 278 W/m² | - |
| 1777386916 | 15.56° C | 94% | 1009.9 hPa | 0 mm | - | 358 W/m² | - |
| 1777386614 | 15.56° C | 95% | 1009.9 hPa | 0 mm | - | 184 W/m² | - |
| 1777386310 | 15° C | 96% | 1010 hPa | 0 mm | - | 225 W/m² | - |
| 1777386008 | 15° C | 95% | 1009.7 hPa | 0 mm | - | 247 W/m² | - |
* Rain latest hour (hover to see other rain measurements)
** Current wind speed in m/s (hover to see current wind gust speed)